Flag for Central African Republic Weather past 2 weeks in Bimbo, Central African Republic

Now
72 °F

Clear.


Feels Like: 67 °F
Forecast: 73 / 90 °F
Wind: 1 mph from North

Location: Bangui Airport

Current Time: Mar 6, 2015 at 6:05:56 AM

Latest Report: Mar 6, 2015 at 5:00 AM


Visibility: 10 mi

Pressure: 29.86 "Hg

Humidity: 94%

Dew point: 70 °F

Location of BimboLocation

Historic Weather in Bimbo — Graph

°F

Bimbo temperature yesterday

Maximum temperature yesterday: 90 °F (at 12:00 PM)
Minimum temperature yesterday: 75 °F (at 5:00 AM)
Average temperature yesterday: 81 °F

Past Weeks' High & Low Weather Summary

 TemperatureHumidityPressure
High99 °F (Feb 22, 3:00 PM)100% (Feb 19, 6:00 AM)29.95 "Hg (Feb 19, 6:00 AM)
Low66 °F (Feb 19, 6:00 AM)30% (Mar 2, 3:00 PM)29.68 "Hg (Feb 19, 4:00 PM)
Average82 °F73%29.82 "Hg
* Reported Feb 19 5:00 AM — Mar 6 5:00 AM, Bimbo, Weather by CustomWeather, © 2015

Note: Actual official high and low records may vary slightly from our data, if they occured in-between our weather recording intervals... More about our weather records

Advertising

Bimbo weather history for previous 24 hours

 ConditionsComfort  
Time TempWeatherWind HumidityBarometerVisibility
5:00 AM
Fri, Mar 6
72 °FClear.1 mph94%29.86 "Hg10 mi
3:00 AM73 °FClear.5 mph89%29.83 "Hg10 mi
2:00 AM73 °FClear.2 mph89%29.83 "Hg10 mi
1:00 AM75 °FClear.No wind83%29.83 "Hg10 mi
12:00 AM75 °FClear.2 mph83%29.83 "Hg10 mi
11:00 PM
Thu, Mar 5
75 °FClear.No wind83%29.86 "Hg10 mi
10:00 PM75 °FClear.5 mph83%29.83 "Hg10 mi
9:00 PM77 °FClear.5 mph74%29.83 "Hg10 mi
8:00 PM79 °FClear.8 mph70%29.80 "Hg5 mi
7:00 PM81 °FClear.7 mph79%29.77 "Hg5 mi
6:00 PM82 °FClear.2 mph79%29.74 "Hg10 mi
5:00 PM86 °FPartly sunny.No wind66%29.74 "HgN/A
4:00 PM88 °FPartly sunny.5 mph62%29.74 "HgN/A
3:00 PM88 °FBroken clouds.5 mph62%29.77 "HgN/A
2:00 PM88 °FBroken clouds.7 mph66%29.80 "HgN/A
1:00 PM88 °FWarm.7 mph62%29.83 "HgN/A
12:00 PM90 °FBroken clouds.7 mph59%29.86 "HgN/A
11:00 AM86 °FPartly sunny.5 mph66%29.89 "Hg5 mi
10:00 AM84 °FPartly sunny.5 mph70%29.92 "Hg5 mi
9:00 AM81 °FBroken clouds.No wind79%29.92 "Hg5 mi
8:00 AM77 °FBroken clouds.2 mph89%29.92 "Hg5 mi
7:00 AM75 °FPassing clouds.No wind94%29.86 "Hg5 mi
6:00 AM75 °FPartly sunny.No wind94%29.83 "Hg5 mi
Weather by CustomWeather, © 2015

See weather overviewHow to use our weather pages